Вернуться в каталог

BREEZE-M DEB

АктивенHEO
NORAD 36594·DEBRIS·🇷🇺 Russia

Запущен Jun 3, 2010 с Baikonur Cosmodrome

Loading…

Ближайшие Пролёты (ближайшие 24 часа)

TLE

СвежийSource: Space-Track

Эпоха: Sep 14, 2026, 09:51 UTC

1 36594U 10025C   26257.41067053  .00005760  00000-0  75114-3 0  9992
2 36594  49.3686 259.3943 5294490  59.8293 342.2224  5.15788184293852

Отслеживайте BREEZE-M DEB в реальном времени с AllMySat

Download on the App Store